Zurück zum Katalog

STARLINK-4068

AktivKommunikationVLEO
NORAD 52681·PAYLOAD·🇺🇸 United States

Gestartet May 18, 2022 von Cape Canaveral Space Force Station

Loading…

Nächste Überflüge (nächste 24 Stunden)

TLE

AktuellSource: CelesTrak SupGP

Epoche: Sep 15, 2026, 02:48 UTC

1 52681C 22053AB  26258.11715278  .00029482  00000+0  94815-3 0  2581
2 52681  53.1600   7.8784 0001213  79.1426  58.6620 15.31683931    17

Verfolge STARLINK-4068 in Echtzeit mit AllMySat

Download on the App Store